Flag for Canada Weather past 2 weeks in Saint-Jérôme, Quebec, Canada

Now
46 °F

Partly sunny.


Feels Like: 45 °F
Forecast: N/A
Wind: 3 mph from East

Location: Montreal / Mirabel

Current Time: Apr 18, 2015 at 4:36:48 PM

Latest Report: Apr 18, 2015 at 4:00 PM


Visibility: 45 mi

Pressure: 29.98 "Hg

Humidity: 66%

Dew point: 36 °F

Location of Saint-JérômeLocation

Historic Weather in Saint-Jérôme — Graph

°F

Saint-Jérôme temperature yesterday

Maximum temperature yesterday: 66 °F (at 2:00 PM)
Minimum temperature yesterday: 48 °F (at 12:00 AM)
Average temperature yesterday: 57 °F

Past Weeks' High & Low Weather Summary

 TemperatureHumidityPressure
High72 °F (Apr 13, 3:00 PM)100% (Apr 4, 12:00 AM)30.52 "Hg (Apr 4, 12:00 AM)
Low14 °F (Apr 6, 6:00 AM)12% (Apr 15, 3:00 PM)29.43 "Hg (Apr 10, 6:00 PM)
Average41 °F56%30.09 "Hg
* Reported Apr 3 3:00 PM — Apr 18 3:00 PM, Saint-Jérôme, Weather by CustomWeather, © 2015

Note: Actual official high and low records may vary slightly from our data, if they occured in-between our weather recording intervals... More about our weather records

Advertising

Saint-Jérôme weather history for previous 24 hours

 ConditionsComfort  
Time TempWeatherWind HumidityBarometerVisibility
3:00 PM
Sat, Apr 18
45 °FPartly sunny.5 mph71%29.98 "Hg25 mi
2:00 PM43 °FPartly sunny.7 mph71%29.96 "Hg45 mi
1:00 PM41 °FMostly cloudy.6 mph70%29.93 "Hg25 mi
12:00 PM41 °FSprinkles. More clouds than sun.7 mph66%29.95 "Hg25 mi
11:00 AM45 °FScattered showers. Cloudy.8 mph46%29.93 "Hg45 mi
10:00 AM45 °FBroken clouds.9 mph49%29.94 "Hg45 mi
9:00 AM41 °FScattered clouds.8 mph61%29.98 "Hg45 mi
8:00 AM37 °FScattered clouds.6 mph65%30.00 "Hg45 mi
7:00 AM34 °FPassing clouds.3 mph70%30.00 "Hg45 mi
6:00 AM34 °FPassing clouds.3 mph70%29.98 "Hg45 mi
5:00 AM36 °FPassing clouds.3 mph60%29.98 "Hg25 mi
4:00 AM37 °FPassing clouds.2 mph56%29.98 "Hg25 mi
3:00 AM41 °FPassing clouds.3 mph49%29.98 "Hg25 mi
2:00 AM41 °FClear.2 mph49%29.97 "Hg25 mi
1:00 AM45 °FPassing clouds.5 mph42%29.97 "Hg25 mi
12:00 AM48 °FPassing clouds.8 mph37%29.96 "Hg25 mi
11:00 PM
Fri, Apr 17
48 °FPassing clouds.2 mph37%29.93 "Hg25 mi
10:00 PM54 °FPassing clouds.6 mph30%29.90 "Hg25 mi
9:00 PM57 °FPassing clouds.8 mph39%29.89 "Hg25 mi
8:00 PM61 °FPassing clouds.8 mph36%29.85 "Hg25 mi
7:00 PM64 °FPassing clouds.14 mph30%29.83 "Hg25 mi
6:00 PM66 °FBroken clouds.10 mph30%29.80 "Hg45 mi
5:00 PM66 °FPartly sunny.9 mph32%29.80 "Hg45 mi
4:00 PM66 °FPartly sunny.12 mph35%29.79 "Hg45 mi
Weather by CustomWeather, © 2015

See weather overviewHow to use our weather pages